Location: Unspecified
(0.0000°N, 0.0000°E)
Time: 07:26:19
(UTC+00:00)

AO-7 - Pass Details

Date: 15 December 2017
Orbit: 1440 x 1458 km, 101.7° (Epoch: 23 January)

Event Time Altitude Azimuth Distance (km) Brightness Sun altitude
Exits shadow 02:17:38 26° 80° (E) 2,537 ? -48.3°
Maximum altitude 02:19:59 30° 107° (ESE) 2,370 ? -47.8°
Drops below altitude 10° 02:26:56 10° 164° (SSE) 3,577 ? -46.4°
Sets 02:30:09 0° 174° (S) 4,555 ? -45.7°
